Torna al catalogo

DELTA 1 DEB

AttivoSSO
NORAD 37667·DEBRIS·🇺🇸 United States

Lanciato Mar 5, 1978 da Vandenberg Space Force Base

Loading…

Prossimi Passaggi (prossime 24 ore)

TLE

AggiornatoSource: Space-Track

Epoca: Sep 13, 2026, 20:34 UTC

1 37667U 78026KE  26256.85701076  .00005511  00000-0  58364-3 0  9998
2 37667  98.2419 308.2720 0022858 237.2101 122.6913 14.89394955704616

Traccia DELTA 1 DEB in tempo reale con AllMySat

Download on the App Store